Content
SEND FEEDBACK

United States of America Flag

LOUDON, TENNESSEE


Home > North America > United States > Tennessee
Elevation: 82 feet     Latitude: 35 44N     Longitude: 084 21W

WEATHER
 
SELECT A DAY
Number of Records: 220,052;   Date Range: 1/1/95 - 3/22/16
 
SHARE

PRINT THIS DATA

[ ← Previous Day ]
WEATHER ALMANAC - APRIL 17, 2014
[ Next Day → ]
[ °C ]   °F
Weather ElementAverageHighLow
Temperature52 °F68 °F (5:53 pm)35.1 °F (2:53 am)
Dewpoint33 °F37 °F (10:53 pm)30.9 °F (6:53 am)
Humidity53.6 %89 % (2:53 am)26 % (5:53 pm)
Barometer30.34 in30.42 in (10:53 am)30.27 in (4:53 pm)
Wind Speed2.5 mph6.9 mph (5:53 pm)
Weather ElementAverage
Visibility10 mi
Wind DirectionESE (98.7 °)

Weather ElementTotal
Precipitation---
Heating Degree Days13.5 (Base 65)
Growing Degree Days1.6 (Base 50)
Averaged from 23 records on April 17, 2014
WEATHER CONDITIONS BREAKOUT
WIND DIRECTION BREAKOUT
WEATHER BY HOUR - APRIL 17, 2014
[ °C ]   °F
Local TimeTemperatureDewpointHumidityBarometerVisibilityWind DirectionWind SpeedGust SpeedPrecipitationEventsConditions
1:53 AM42.1 °F33.1 °F70 %30.29 in10.0 miCalmClear
2:53 AM35.1 °F32.0 °F89 %30.31 in10.0 miNE (50°)5.8 mphClear
3:53 AM37.0 °F34.0 °F89 %30.33 in10.0 miNNE (30°)3.5 mphClear
4:53 AM37.0 °F32.0 °F82 %30.35 in10.0 miCalmClear
5:53 AM37.0 °F32.0 °F82 %30.35 in10.0 miNE (40°)3.5 mphClear
6:53 AM36.0 °F30.9 °F82 %30.37 in10.0 miNW (320°)3.5 mphScattered Clouds
7:53 AM37.0 °F32.0 °F82 %30.38 in10.0 miCalmMostly Cloudy
8:53 AM43.0 °F34.0 °F71 %30.40 in10.0 miNE (40°)4.6 mphMostly Cloudy
9:53 AM45.0 °F34.0 °F65 %30.41 in10.0 miCalmMostly Cloudy
10:53 AM50.0 °F35.1 °F57 %30.42 in10.0 miNorth (360°)3.5 mphMostly Cloudy
11:53 AM55.4 °F33.8 °F44 %30.42 in10.0 miCalmScattered Clouds
12:53 PM57.2 °F32.0 °F38 %30.41 in10.0 miCalmScattered Clouds
1:53 PM61.0 °F30.9 °F32 %30.38 in10.0 miWest (270°)3.5 mphPartly Cloudy
2:53 PM63.0 °F30.9 °F30 %30.35 in10.0 miVariable3.5 mphPartly Cloudy
3:53 PM64.0 °F32.0 °F30 %30.30 in10.0 miVariable3.5 mphPartly Cloudy
4:53 PM66.9 °F34.0 °F30 %30.27 in10.0 miENE (60°)5.8 mphScattered Clouds
5:53 PM68.0 °F32.0 °F26 %30.28 in10.0 miNorth (350°)6.9 mphScattered Clouds
6:53 PM66.9 °F30.9 °F26 %30.27 in10.0 miNNW (340°)3.5 mphMostly Cloudy
7:53 PM64.9 °F30.9 °F28 %30.27 in10.0 miCalmMostly Cloudy
8:53 PM63.0 °F32.0 °F31 %30.29 in10.0 miWest (270°)3.5 mphMostly Cloudy
9:53 PM55.9 °F36.0 °F47 %30.30 in10.0 miCalmOvercast
10:53 PM55.9 °F37.0 °F49 %30.30 in10.0 miCalmOvercast
11:53 PM54.0 °F37.0 °F53 %30.31 in10.0 miSE (140°)3.5 mphOvercast
Hourly data recorded from KTYS, located miles away from Loudon, Tennessee




STORIES FROM OUR PARTNERS